sat.trackr.live / text

‹ back to catalog

STARLINK-35389

NORAD 66434 · 2025-259N

PAYLOAD ACTIVE UNKNOWN

§ Identity

Operator
Country
US
Launch date
2025-11-11
Launch site
AFETR
Launch vehicle
Mass (kg)
RCS (m²)

Purposes: comms

External: N2YO · Heavens-Above · Gunter

§ Orbital elements

Epoch: 2026-05-25T04:26:40.005600Z

Period
94.26 min
Inclination
42.9997°
Eccentricity
0.0001520
Mean motion
15.27608692 rev/d
Perigee alt
481.9 km
Apogee alt
484.0 km
Semi-major
6,861.1 km
B*
7.0846e-4
RAAN
202.0482°
Arg perigee
268.3925°
Mean anomaly
91.6753°
Rev number
3,119

§ Raw data

STARLINK-353891 66434U 25259N   26145.18518525  .00019301  00000+0  70846-3 0  99902 66434  42.9997 202.0482 0001520 268.3925  91.6753 15.27608692 31197

JSON: /api/v1/satellites/66434 · /tle

For live sub-satellite position, see the globe view (requires WebGL).

§ Visibility from observer

Set your observer location to see the next 7 days of passes ≥ 10°. The values pass through the URL so the page stays shareable.

No JS? Fill the form by hand. The geolocation button needs JavaScript.